sat.trackr.live / text

‹ back to catalog

STARLINK-33944

NORAD 64209 · 2025-117G

PAYLOAD ACTIVE UNKNOWN

§ Identity

Operator
Country
US
Launch date
2025-05-31
Launch site
AFWTR
Launch vehicle
Mass (kg)
RCS (m²)

Purposes: comms

External: N2YO · Heavens-Above · Gunter

§ Orbital elements

Epoch: 2026-09-19T10:31:02.111232Z

Period
93.85 min
Inclination
53.1557°
Eccentricity
0.0002230
Mean motion
15.34426885 rev/d
Perigee alt
461.1 km
Apogee alt
464.1 km
Semi-major
6,840.8 km
B*
6.0070e-4
RAAN
218.6615°
Arg perigee
116.0062°
Mean anomaly
244.1170°
Rev number
7,423

§ Raw data

STARLINK-339441 64209U 25117G   26262.43821888  .00019991  00000+0  60070-3 0  99912 64209  53.1557 218.6615 0002230 116.0062 244.1170 15.34426885 74232

JSON: /api/v1/satellites/64209 · /tle

For live sub-satellite position, see the globe view (requires WebGL).

§ Visibility from observer

Set your observer location to see the next 7 days of passes ≥ 10°. The values pass through the URL so the page stays shareable.

No JS? Fill the form by hand. The geolocation button needs JavaScript.